GW3062 Weather Reports


time (UTC)temp
C
wind
direction
speed
KPH
gust
KPH
rain 1hr
cm
rain 24hr
cm
rain mn
cm
humidity
%
barometer
mb
20260510191014 29 64 1.6 4.8 0.00 0.00 0.00 28 1013.1
20260510190514 30 52 1.6 4.8 0.00 0.00 0.00 28 1013.1
20260510190014 30 59 1.6 3.2 0.00 0.00 0.00 29 1013.1
20260510185514 30 52 0.0 3.2 0.00 0.00 0.00 26 1013.1
20260510185014 30 90 0.0 4.8 0.00 0.00 0.00 27 1013.1
20260510184514 29 89 1.6 4.8 0.00 0.00 0.00 26 1013.1
20260510184025 29 72 1.6 6.4 0.00 0.00 0.00 27 1013.2
20260510183514 29 60 1.6 6.4 0.00 0.00 0.00 29 1013.2
20260510183014 30 35 3.2 4.8 0.00 0.00 0.00 28 1013.2
20260510182525 30 39 1.6 4.8 0.00 0.00 0.00 29 1013.2
20260510182015 30 61 1.6 3.2 0.00 0.00 0.00 30 1013.2
20260510181514 29 57 1.6 4.8 0.00 0.00 0.00 31 1013.2
20260510181014 29 84 3.2 4.8 0.00 0.00 0.00 28 1013.2
20260510180515 28 72 0.0 4.8 0.00 0.00 0.00 29 1013.3
20260510180014 29 26 1.6 3.2 0.00 0.00 0.00 28 1013.4
20260510175514 29 53 0.0 4.8 0.00 0.00 0.00 32 1013.4
20260510175015 29 55 0.0 4.8 0.00 0.00 0.00 31 1013.5
20260510174514 30 41 1.6 4.8 0.00 0.00 0.00 28 1013.6
20260510174014 30 95 0.0 3.2 0.00 0.00 0.00 30 1013.6
20260510173514 28 113 1.6 4.8 0.00 0.00 0.00 32 1013.6
20260510173014 28 76 1.6 9.7 0.00 0.00 0.00 29 1013.8
20260510172514 28 102 4.8 9.7 0.00 0.00 0.00 29 1013.7
20260510172025 29 112 3.2 4.8 0.00 0.00 0.00 28 1013.8
20260510171514 29 54 0.0 3.2 0.00 0.00 0.00 31 1013.8
20260510171025 30 77 1.6 3.2 0.00 0.00 0.00 28 1013.7
20260510170514 29 68 0.0 3.2 0.00 0.00 0.00 28 1013.7
20260510170014 29 69 1.6 3.2 0.00 0.00 0.00 29 1013.7
20260510165514 28 78 0.0 4.8 0.00 0.00 0.00 31 1013.7
20260510165014 28 44 1.6 4.8 0.00 0.00 0.00 33 1013.7
20260510164525 27 64 0.0 8.0 0.00 0.00 0.00 35 1013.8
20260510164015 28 302 3.2 8.0 0.00 0.00 0.00 31 1013.9
20260510163514 28 103 1.6 6.4 0.00 0.00 0.00 36 1014.0
20260510163015 28 120 1.6 4.8 0.00 0.00 0.00 31 1014.0
20260510162515 28 98 0.0 4.8 0.00 0.00 0.00 35 1014.1
20260510162025 28 104 1.6 6.4 0.00 0.00 0.00 35 1014.0
20260510161525 28 98 1.6 3.2 0.00 0.00 0.00 38 1014.0
20260510161014 28 117 0.0 3.2 0.00 0.00 0.00 37 1014.1
20260510160514 28 84 0.0 6.4 0.00 0.00 0.00 40 1014.1
20260510160014 28 86 3.2 6.4 0.00 0.00 0.00 39 1014.2
20260510155514 28 94 0.0 4.8 0.00 0.00 0.00 42 1014.1
20260510155014 28 86 0.0 4.8 0.00 0.00 0.00 41 1014.2
20260510154514 27 78 0.0 3.2 0.00 0.00 0.00 42 1014.2
20260510154026 27 101 0.0 3.2 0.00 0.00 0.00 43 1014.4
20260510153514 26 70 0.0 4.8 0.00 0.00 0.00 45 1014.3
20260510153014 26 129 1.6 8.0 0.00 0.00 0.00 44 1014.4
20260510152525 27 98 1.6 8.0 0.00 0.00 0.00 42 1014.5
20260510151525 27 102 1.6 4.8 0.00 0.00 0.00 41 1014.4
20260510150014 26 96 1.6 4.8 0.00 0.00 0.00 47 1014.4
20260510145514 26 110 1.6 4.8 0.00 0.00 0.00 45 1014.4
20260510145015 25 58 0.0 6.4 0.00 0.00 0.00 49 1014.4
20260510144514 25 106 1.6 6.4 0.00 0.00 0.00 47 1014.4
20260510144025 25 104 0.0 4.8 0.00 0.00 0.00 49 1014.5
20260510143514 25 59 0.0 3.2 0.00 0.00 0.00 51 1014.5
20260510143025 25 86 0.0 3.2 0.00 0.00 0.00 53 1014.4
20260510142514 24 83 0.0 3.2 0.00 0.00 0.00 54 1014.4
20260510142014 24 70 0.0 3.2 0.00 0.00 0.00 55 1014.5
20260510141520 23 90 0.0 6.4 0.00 0.00 0.00 54 1014.5
20260510141014 23 113 3.2 6.4 0.00 0.00 0.00 53 1014.5
20260510140014 23 131 1.6 4.8 0.00 0.00 0.00 55 1014.5
20260510135517 23 105 1.6 3.2 0.00 0.00 0.00 56 1014.5
20260510135014 23 89 1.6 4.8 0.00 0.00 0.00 59 1014.5
20260510134514 23 83 0.0 4.8 0.00 0.00 0.00 61 1014.6
20260510134014 23 91 3.2 4.8 0.00 0.00 0.00 58 1014.5
20260510133526 23 82 1.6 3.2 0.00 0.00 0.00 60 1014.4
20260510133015 22 84 0.0 1.6 0.00 0.00 0.00 67 1014.4
20260510132515 22 84 0.0 3.2 0.00 0.00 0.00 70 1014.4
20260510132014 22 84 0.0 3.2 0.00 0.00 0.00 70 1014.4
20260510131526 21 98 0.0 3.2 0.00 0.00 0.00 70 1014.4
20260510131014 21 86 0.0 1.6 0.00 0.00 0.00 73 1014.4
20260510130514 21 86 0.0 1.6 0.00 0.00 0.00 76 1014.3
20260510130014 20 86 0.0 1.6 0.00 0.00 0.00 78 1014.3
20260510125514 20 100 0.0 1.6 0.00 0.00 0.00 79 1014.2
20260510125015 20 100 0.0 1.6 0.00 0.00 0.00 83 1014.3
20260510124515 18 70 0.0 1.6 0.00 0.00 0.00 86 1014.4
20260510124026 18 58 0.0 0.0 0.00 0.00 0.00 90 1014.4
20260510123514 17 58 0.0 0.0 0.00 0.00 0.00 92 1014.2
20260510123014 17 58 0.0 0.0 0.00 0.00 0.00 94 1014.2
20260510122514 16 58 0.0 0.0 0.00 0.00 0.00 95 1014.1
20260510122014 16 58 0.0 0.0 0.00 0.00 0.00 97 1014.0
20260510121515 15 58 0.0 0.0 0.00 0.00 0.00 97 1013.8
20260510121015 15 58 0.0 0.0 0.00 0.00 0.00 97 1013.8
20260510120525 15 58 0.0 0.0 0.00 0.00 0.00 98 1013.7
20260510120016 13 58 0.0 0.0 0.00 0.00 0.00 98 1013.5
20260510115515 13 58 0.0 1.6 0.00 0.00 0.00 98 1013.3
20260510115015 12 58 0.0 1.6 0.00 0.00 0.00 98 1013.3
20260510114526 12 58 0.0 1.6 0.00 0.00 0.00 98 1013.1
20260510114014 12 58 0.0 1.6 0.00 0.00 0.00 98 1013.2
20260510113515 11 58 0.0 0.0 0.00 0.00 0.00 98 1013.1
20260510113015 11 58 0.0 0.0 0.00 0.00 0.00 98 1013.0
20260510112515 11 58 0.0 0.0 0.00 0.00 0.00 98 1012.8
20260510112015 11 58 0.0 0.0 0.00 0.00 0.00 98 1012.8
20260510111526 11 58 0.0 0.0 0.00 0.00 0.00 98 1012.8
20260510111015 11 58 0.0 0.0 0.00 0.00 0.00 98 1012.7
20260510110515 10 58 0.0 0.0 0.00 0.00 0.00 98 1012.6
20260510110015 10 58 0.0 0.0 0.00 0.00 0.00 97 1012.5
20260510105515 10 58 0.0 0.0 0.00 0.00 0.00 97 1012.4
20260510105015 10 58 0.0 0.0 0.00 0.00 0.00 97 1012.3
20260510104526 10 58 0.0 0.0 0.00 0.00 0.00 97 1012.3
20260510104014 10 58 0.0 0.0 0.00 0.00 0.00 97 1012.2
20260510103515 10 58 0.0 0.0 0.00 0.00 0.00 97 1012.2
20260510103015 10 58 0.0 0.0 0.00 0.00 0.00 97 1012.0
20260510102515 11 58 0.0 0.0 0.00 0.00 0.00 97 1012.0
20260510102015 11 58 0.0 0.0 0.00 0.00 0.00 97 1011.9
20260510101515 11 58 0.0 0.0 0.00 0.00 0.00 97 1011.8
20260510101015 11 58 0.0 0.0 0.00 0.00 0.00 97 1011.7
20260510100515 11 58 0.0 0.0 0.00 0.00 0.00 97 1011.7
20260510100015 11 58 0.0 0.0 0.00 0.00 0.00 97 1011.6
20260510095514 11 58 0.0 0.0 0.00 0.00 0.00 97 1011.4
20260510095015 11 56 0.0 0.0 0.00 0.00 0.00 97 1011.3
20260510094526 11 56 0.0 0.0 0.00 0.00 0.00 97 1011.4
20260510094026 11 56 0.0 0.0 0.00 0.00 0.00 97 1011.4
20260510093515 11 56 0.0 0.0 0.00 0.00 0.00 97 1011.3
20260510093015 11 56 0.0 0.0 0.00 0.00 0.00 97 1011.4
20260510092515 11 56 0.0 0.0 0.00 0.00 0.00 97 1011.2
20260510091015 12 56 0.0 0.0 0.00 0.00 0.00 97 1011.2
20260510090515 12 56 0.0 0.0 0.00 0.00 0.00 97 1011.3
20260510084515 12 56 0.0 0.0 0.00 0.00 0.00 97 1011.1
20260510084015 12 56 0.0 0.0 0.00 0.00 0.00 97 1011.0
20260510083514 12 56 0.0 0.0 0.00 0.00 0.00 97 1011.0
20260510083015 12 56 0.0 0.0 0.00 0.00 0.00 97 1010.9
20260510082515 12 56 0.0 0.0 0.00 0.00 0.00 97 1010.9
20260510082027 12 56 0.0 0.0 0.00 0.00 0.00 96 1011.0
20260510081515 12 56 0.0 0.0 0.00 0.00 0.00 96 1010.9
20260510081015 12 56 0.0 0.0 0.00 0.00 0.00 96 1010.8
20260510080515 12 56 0.0 0.0 0.00 0.00 0.00 96 1010.7
20260510080015 12 56 0.0 0.0 0.00 0.00 0.00 96 1010.8
20260510075515 12 56 0.0 0.0 0.00 0.00 0.00 96 1010.7
20260510075015 12 56 0.0 0.0 0.00 0.00 0.00 97 1010.7
20260510074515 12 56 0.0 0.0 0.00 0.00 0.00 97 1010.6
20260510074015 12 56 0.0 0.0 0.00 0.00 0.00 97 1010.6
20260510073526 12 56 0.0 0.0 0.00 0.00 0.00 97 1010.6
20260510073016 12 56 0.0 0.0 0.00 0.00 0.00 96 1010.5
20260510072515 12 56 0.0 0.0 0.00 0.00 0.00 96 1010.6
20260510072015 13 56 0.0 0.0 0.00 0.00 0.00 96 1010.6
20260510071515 13 56 0.0 0.0 0.00 0.00 0.00 96 1010.6
20260510071015 13 56 0.0 0.0 0.00 0.00 0.00 96 1010.4
20260510070515 13 56 0.0 0.0 0.00 0.00 0.00 96 1010.4
20260510070015 13 56 0.0 0.0 0.00 0.00 0.00 96 1010.3
20260510065527 13 56 0.0 0.0 0.00 0.00 0.00 96 1010.2
20260510065015 13 56 0.0 0.0 0.00 0.00 0.00 96 1010.3
20260510064515 13 56 0.0 0.0 0.00 0.00 0.00 96 1010.3
20260510064015 13 56 0.0 0.0 0.00 0.00 0.00 96 1010.3
20260510063526 13 56 0.0 0.0 0.00 0.00 0.00 96 1010.4
20260510063015 13 56 0.0 0.0 0.00 0.00 0.00 96 1010.4
20260510062526 13 56 0.0 0.0 0.00 0.00 0.00 96 1010.3
20260510062015 13 56 0.0 0.0 0.00 0.00 0.00 96 1010.3
20260510061516 13 56 0.0 0.0 0.00 0.00 0.00 95 1010.4
20260510061016 13 56 0.0 0.0 0.00 0.00 0.00 95 1010.4
20260510060515 13 56 0.0 0.0 0.00 0.00 0.00 95 1010.6
20260510060015 13 56 0.0 0.0 0.00 0.00 0.00 95 1010.5
20260510055515 14 56 0.0 0.0 0.00 0.00 0.00 96 1010.5
20260510055016 14 56 0.0 0.0 0.00 0.00 0.00 96 1010.5
20260510054515 13 56 0.0 0.0 0.00 0.00 0.00 96 1010.4
20260510054016 13 56 0.0 0.0 0.00 0.00 0.00 95 1010.6
20260510053515 14 56 0.0 0.0 0.00 0.00 0.00 95 1010.5
20260510053026 14 56 0.0 0.0 0.00 0.00 0.00 95 1010.5
20260510052515 14 56 0.0 0.0 0.00 0.00 0.00 95 1010.5
20260510052015 14 56 0.0 0.0 0.00 0.00 0.00 95 1010.6
20260510051515 14 56 0.0 0.0 0.00 0.00 0.00 95 1010.7
20260510051015 14 56 0.0 0.0 0.00 0.00 0.00 95 1010.6
20260510050515 15 56 0.0 0.0 0.00 0.00 0.00 95 1010.6
20260510050015 15 56 0.0 1.6 0.00 0.00 0.00 95 1010.6
20260510045515 15 56 0.0 1.6 0.00 0.00 0.00 95 1010.5
20260510045016 15 56 0.0 0.0 0.00 0.00 0.00 95 1010.4
20260510044516 15 56 0.0 0.0 0.00 0.00 0.00 95 1010.6
20260510044015 15 56 0.0 0.0 0.00 0.00 0.00 94 1010.5
20260510043526 15 56 0.0 0.0 0.00 0.00 0.00 94 1010.8
20260510043015 15 56 0.0 0.0 0.00 0.00 0.00 94 1010.9
20260510042515 15 56 0.0 0.0 0.00 0.00 0.00 94 1010.7
20260510042016 15 56 0.0 0.0 0.00 0.00 0.00 94 1010.6
20260510041515 15 56 0.0 0.0 0.00 0.00 0.00 94 1010.7
20260510041017 15 56 0.0 0.0 0.00 0.00 0.00 93 1010.6
20260510040515 15 56 0.0 0.0 0.00 0.00 0.00 93 1010.6
20260510040016 15 56 0.0 0.0 0.00 0.00 0.00 93 1010.5
20260510035515 15 56 0.0 0.0 0.00 0.00 0.00 93 1010.5
20260510035026 15 56 0.0 0.0 0.00 0.00 0.00 92 1010.5
20260510034516 15 56 0.0 0.0 0.00 0.00 0.00 92 1010.5
20260510034015 15 56 0.0 0.0 0.00 0.00 0.00 92 1010.6
20260510033515 15 56 0.0 0.0 0.00 0.00 0.00 92 1010.6
20260510033015 15 56 0.0 0.0 0.00 0.00 0.00 92 1010.6
20260510032526 15 56 0.0 0.0 0.00 0.00 0.00 92 1010.5
20260510032026 15 56 0.0 0.0 0.00 0.00 0.00 92 1010.6
20260510031516 15 56 0.0 0.0 0.00 0.00 0.00 91 1010.7
20260510031016 15 56 0.0 0.0 0.00 0.00 0.00 91 1010.7
20260510030515 16 56 0.0 0.0 0.00 0.00 0.00 91 1010.6
20260510030015 16 56 0.0 0.0 0.00 0.00 0.00 91 1010.6
20260510025515 16 56 0.0 0.0 0.00 0.00 0.00 91 1010.6
20260510025015 16 56 0.0 0.0 0.00 0.00 0.00 91 1010.6
20260510024515 16 56 0.0 0.0 0.00 0.00 0.00 90 1010.5
20260510024016 16 56 0.0 0.0 0.00 0.00 0.00 90 1010.5
20260510023515 16 56 0.0 0.0 0.00 0.00 0.00 89 1010.4
20260510023016 16 56 0.0 0.0 0.00 0.00 0.00 89 1010.4
20260510022516 16 56 0.0 0.0 0.00 0.00 0.00 88 1010.4
20260510022016 16 56 0.0 0.0 0.00 0.00 0.00 88 1010.3
20260510021516 16 56 0.0 0.0 0.00 0.00 0.00 88 1010.2
20260510020016 16 56 0.0 0.0 0.00 0.00 0.00 86 1010.0
20260510015515 17 56 0.0 0.0 0.00 0.00 0.00 85 1009.9
20260510015016 17 56 0.0 0.0 0.00 0.00 0.00 85 1009.9
20260510014527 17 56 0.0 0.0 0.00 0.00 0.00 85 1009.9
20260510014016 17 56 0.0 0.0 0.00 0.00 0.00 84 1009.8
20260510013516 17 56 0.0 0.0 0.00 0.00 0.00 84 1009.7
20260510013026 17 56 0.0 0.0 0.00 0.00 0.00 83 1009.7
20260510012527 17 56 0.0 0.0 0.00 0.00 0.00 83 1009.5
20260510012016 18 56 0.0 0.0 0.00 0.00 0.00 82 1009.5
20260510011516 18 56 0.0 1.6 0.00 0.00 0.00 82 1009.5
20260510011016 18 56 0.0 1.6 0.00 0.00 0.00 82 1009.4
20260510010515 18 56 0.0 1.6 0.00 0.00 0.00 82 1009.3
20260510010027 18 56 0.0 1.6 0.00 0.00 0.00 82 1009.2
20260510005516 18 56 0.0 0.0 0.00 0.00 0.00 81 1009.2
20260510005016 18 56 0.0 0.0 0.00 0.00 0.00 80 1009.0
20260510004516 18 56 0.0 0.0 0.00 0.00 0.00 79 1009.0
20260510004016 19 56 0.0 0.0 0.00 0.00 0.00 78 1008.9
20260510003516 19 55 0.0 0.0 0.00 0.00 0.00 77 1008.8
20260510003015 20 56 0.0 0.0 0.00 0.00 0.00 76 1008.7
20260510002527 20 56 0.0 1.6 0.00 0.00 0.00 76 1008.6
20260510002027 20 56 0.0 1.6 0.00 0.00 0.00 75 1008.6
20260510001518 20 56 0.0 1.6 0.00 0.00 0.00 74 1008.5
20260510001017 20 56 0.0 1.6 0.00 0.00 0.00 74 1008.5
20260510000516 20 56 0.0 1.6 0.00 0.00 0.00 74 1008.4
20260510000016 20 55 0.0 0.0 0.00 0.00 0.00 73 1008.3
20260509235516 21 53 0.0 3.2 0.00 0.00 0.00 73 1008.2
20260509235016 21 53 0.0 3.2 0.00 0.00 0.00 72 1008.2
20260509234527 21 55 0.0 1.6 0.00 0.00 0.00 72 1008.2
20260509234015 21 52 0.0 4.8 0.00 0.00 0.00 72 1008.3
20260509233527 21 49 1.6 4.8 0.00 0.00 0.00 71 1008.3
20260509233016 21 56 0.0 6.4 0.00 0.00 0.00 71 1008.3
20260509232527 21 60 3.2 9.7 0.00 0.00 0.00 70 1008.1
20260509232016 21 47 4.8 8.0 0.00 0.00 0.00 70 1008.0
20260509231516 21 61 0.0 6.4 0.00 0.00 0.00 70 1007.9
20260509231016 21 58 0.0 6.4 0.00 0.00 0.00 69 1007.8
20260509230517 22 40 3.2 6.4 0.00 0.00 0.00 69 1008.0
20260509230027 22 59 0.0 8.0 0.00 0.00 0.00 69 1008.0
20260509225516 22 58 3.2 8.0 0.00 0.00 0.00 69 1007.9
20260509225016 22 66 3.2 6.4 0.00 0.00 0.00 69 1007.9
20260509224516 22 46 3.2 9.7 0.00 0.00 0.00 68 1007.7
20260509224016 22 59 0.0 9.7 0.00 0.00 0.00 68 1007.5
20260509223516 22 51 1.6 6.4 0.00 0.00 0.00 67 1007.5
20260509223016 22 42 1.6 6.4 0.00 0.00 0.00 66 1007.5
20260509222516 22 55 0.0 4.8 0.00 0.00 0.00 66 1007.5
20260509222027 22 74 0.0 3.2 0.00 0.00 0.00 65 1007.5
20260509221515 22 56 0.0 8.0 0.00 0.00 0.00 64 1007.5
20260509221016 22 49 1.6 8.0 0.00 0.00 0.00 64 1007.5
20260509220516 22 45 1.6 8.0 0.00 0.00 0.00 64 1007.4
20260509220016 22 50 4.8 8.0 0.00 0.00 0.00 64 1007.5
20260509215516 22 58 3.2 9.7 0.00 0.00 0.00 64 1007.6
20260509215017 22 72 3.2 9.7 0.00 0.00 0.00 65 1007.6
20260509214516 22 44 1.6 6.4 0.00 0.00 0.00 64 1007.6
20260509214016 22 52 3.2 9.7 0.00 0.00 0.00 64 1007.6
20260509213527 23 44 3.2 11.3 0.00 0.00 0.00 64 1007.5
20260509213016 23 41 3.2 8.0 0.00 0.00 0.00 63 1007.6
20260509212516 23 36 1.6 8.0 0.00 0.00 0.00 63 1007.5
20260509212027 23 64 1.6 6.4 0.00 0.00 0.00 62 1007.5
20260509211527 23 49 1.6 6.4 0.00 0.00 0.00 63 1007.5
20260509211016 23 80 1.6 9.7 0.00 0.00 0.00 64 1007.6
20260509210516 23 53 1.6 9.7 0.00 0.00 0.00 63 1007.5
20260509210016 22 56 1.6 8.0 0.00 0.00 0.00 64 1007.4
20260509205527 22 35 1.6 8.0 0.00 0.00 0.00 63 1007.3
20260509205016 22 44 1.6 11.3 0.00 0.00 0.00 64 1007.4
20260509204516 22 57 4.8 11.3 0.00 0.00 0.00 64 1007.3
20260509204016 22 53 3.2 8.0 0.00 0.00 0.00 63 1007.1
20260509203516 22 49 3.2 6.4 0.00 0.00 0.00 62 1007.1
20260509203028 23 51 1.6 11.3 0.00 0.00 0.00 63 1007.2
20260509202516 23 56 3.2 11.3 0.00 0.00 0.00 63 1007.4
20260509202016 23 51 1.6 6.4 0.00 0.00 0.00 62 1007.5
20260509201517 23 84 0.0 6.4 0.00 0.00 0.00 64 1007.5
20260509201016 23 65 1.6 8.0 0.00 0.00 0.00 63 1007.5
20260509200516 23 39 3.2 8.0 0.00 0.00 0.00 63 1007.4
20260509200017 23 75 1.6 11.3 0.00 0.00 0.00 64 1007.6
20260509195519 22 43 3.2 11.3 0.00 0.00 0.00 64 1007.6
20260509195016 22 34 3.2 11.3 0.00 0.00 0.00 64 1007.6
20260509194527 22 38 3.2 8.0 0.00 0.00 0.00 63 1007.7
20260509194016 23 62 1.6 6.4 0.00 0.00 0.00 63 1007.7
20260509193528 23 68 0.0 9.7 0.00 0.00 0.00 64 1007.8
20260509193017 23 79 4.8 12.9 0.00 0.00 0.00 64 1007.8
20260509192517 23 51 4.8 12.9 0.00 0.00 0.00 64 1007.9
20260509192017 23 60 1.6 9.7 0.00 0.00 0.00 65 1007.9
20260509191517 23 53 1.6 12.9 0.00 0.00 0.00 64 1008.2